#timestamp,LO_Frequency,Hit,StdDev 
1565798415.3,286047006.7,Y
1565798435.2,286047005.1,P
1565798455.9,286047005.7,P
1565798475.7,286047001.8,N
1565798495.6,286047001.6,N
1565798515.4,286047001.6,N
1565798535.3,286047001.6,N
1565798555.1,286047001.7,N
1565798556.0,286047001.7,N
1565798575.8,286047003.9,N
1565798595.7,286047004.7,N
1565798615.5,286047006.0,Y
1565798635.4,286047001.9,P
1565798655.2,286047002.6,P
1565798675.0,286047002.5,P
1565798675.9,286047002.5,Y
1565798695.8,286046998.6,P
1565798715.6,286046998.1,N
1565798735.4,286047002.3,N
1565798755.3,286047001.0,N
1565798775.1,286047004.0,N
1565798795.9,286047002.1,N
1565798815.7,286047002.7,N
1565798835.5,286047003.9,N
1565798855.4,286047003.7,N
1565798875.2,286047003.6,N
1565798895.1,286047001.4,N
1565798896.0,286047001.4,N
1565798915.8,286047004.3,N
1565798935.6,286047004.0,N
1565798955.5,286047003.0,N
1565798975.3,286047002.9,N
1565798995.1,286047006.0,Y
1565799015.9,286047000.1,P
1565799035.7,286047002.7,N
1565799055.6,286047000.9,N
1565799075.4,286046998.2,N
1565799095.2,286046998.6,N
1565799115.1,286047001.4,N
1565799116.0,286047001.4,N
1565799135.8,286047004.2,N
1565799155.7,286047001.4,N
1565799175.5,286047002.6,N
1565799195.3,286047000.1,N
1565799215.2,286047001.9,N
1565799235.9,286047001.7,N
1565799255.7,286047003.7,N
1565799275.6,286047005.9,Y
1565799295.4,286047004.0,P
1565799315.3,286047001.6,N
1565799335.1,286046999.8,N
1565799336.0,286046999.8,N
1565799355.8,286047003.9,N
1565799375.7,286047004.3,N
1565799395.5,286047001.9,N
1565799415.3,286047001.7,N
1565799435.2,286047004.0,N
1565799455.0,286047003.8,N
1565799455.9,286047003.8,N
1565799475.8,286047003.1,N
1565799495.6,286047005.1,Y
1565799515.4,286047003.2,P
1565799535.3,286047002.9,P
1565799555.1,286047005.6,P
1565799575.8,286047005.4,Y
1565799595.7,286047002.7,P
1565799615.5,286047002.0,P
1565799635.4,286047000.0,N
1565799655.2,286047002.1,N
1565799675.0,286047002.0,N
1565799675.9,286047002.0,N
1565799695.8,286047005.3,Y
1565799715.6,286047004.1,P
1565799735.5,286047000.4,N
1565799755.3,286047003.4,N
1565799775.1,286047003.3,N
1565799795.9,286047004.2,Y
1565799815.7,286047002.8,P
1565799835.5,286046998.8,P
1565799855.4,286047000.6,N
1565799875.2,286047002.6,N
1565799895.1,286047000.2,N
1565799896.0,286047000.2,N
1565799915.8,286047000.4,N
1565799935.6,286046998.8,N
1565799955.5,286047002.0,N
1565799975.3,286047002.3,N
1565799995.1,286047002.7,N
1565800015.9,286047001.8,N
1565800035.7,286047001.3,N
1565800055.6,286047002.1,N
1565800075.4,286046999.7,N
1565800095.2,286047002.7,N
1565800115.1,286047001.5,N
1565800116.0,286047001.5,N
1565800135.8,286047002.7,N
1565800155.6,286047001.4,N
1565800175.5,286047003.4,N
1565800195.3,286047006.0,Y
1565800215.2,286047002.7,P
1565800235.9,286047002.6,P
1565800255.7,286047002.8,P
1565800275.6,286046999.8,N
1565800295.4,286047002.8,N
1565800315.2,286047003.1,N
1565800335.1,286047003.1,N
1565800336.0,286047003.1,N
1565800355.8,286047003.7,Y
1565800375.7,286047000.2,P
1565800395.5,286046998.2,N
1565800415.3,286047000.9,N
1565800435.2,286047001.0,N
1565800455.0,286046998.4,N
1565800455.9,286046998.4,N
1565800475.7,286046998.5,N
1565800495.6,286046998.8,N
1565800515.4,286047000.9,N
1565800535.3,286047000.9,N
1565800555.1,286046999.9,N
1565800556.0,286046999.9,N
1565800575.8,286047002.8,N
1565800595.7,286046999.3,N
1565800615.5,286046999.1,N
1565800635.4,286046996.5,N
1565800655.2,286046999.1,N
1565800675.0,286046998.8,N
1565800675.9,286046998.8,N
1565800695.8,286046998.8,N
1565800715.6,286047000.9,N
1565800735.4,286047000.7,N
1565800755.3,286047001.1,N
1565800775.1,286046998.8,N
1565800795.9,286046999.1,N
1565800815.7,286046998.8,N
1565800835.5,286046997.4,N
1565800855.4,286046996.1,N
1565800875.2,286046994.9,Y
1565800895.0,286046996.8,P
1565800895.9,286046996.8,N
1565800915.8,286046996.5,N
1565800935.6,286046998.8,N
1565800955.5,286046997.9,N
1565800975.3,286046999.9,N
1565800995.1,286046999.2,N
1565801015.9,286046997.6,N
1565801035.7,286046995.8,Y
1565801055.5,286046999.5,P
1565801075.4,286046998.5,N
1565801095.2,286046996.9,P
1565801115.1,286046996.7,Y
1565801116.0,286046996.7,P
1565801135.8,286046997.0,P
1565801155.6,286046998.8,N
1565801175.5,286046999.0,N
1565801195.3,286046997.0,Y
1565801215.1,286047001.2,P
1565801235.9,286047000.9,N
1565801255.7,286047000.8,N
1565801275.6,286046999.8,N
1565801295.4,286047000.9,N
1565801315.2,286047000.0,N
1565801335.1,286047002.1,N
1565801336.0,286047002.1,N
1565801355.8,286047000.2,N
1565801375.7,286047000.7,N
1565801395.5,286047000.0,N
1565801415.3,286046998.5,N
1565801435.2,286046998.5,N
1565801455.9,286046996.5,N
1565801475.7,286047001.0,N
1565801495.6,286046998.8,N
1565801515.4,286046999.0,N
1565801535.2,286046999.2,N
1565801555.1,286046999.5,N
1565801556.0,286046999.5,N
1565801575.8,286046998.8,N
1565801595.7,286046998.1,N
1565801615.5,286046997.0,N
1565801635.3,286046998.3,N
1565801655.2,286046999.7,N
1565801675.0,286046999.2,N
1565801675.9,286046999.2,N
1565801695.7,286046998.5,N
1565801715.6,286046998.3,N
1565801735.4,286046996.9,N
1565801755.3,286046999.2,N
1565801775.1,286046999.6,N
1565801776.0,286046999.6,N
1565801795.8,286046995.4,Y
1565801815.7,286046998.3,P
1565801835.5,286046998.4,P
1565801855.3,286046998.4,P
1565801875.2,286046997.4,Y
1565801895.0,286047000.9,P
1565801895.9,286047000.9,N
1565801915.8,286047000.4,N
1565801935.6,286046998.6,N
1565801955.4,286046999.0,N
1565801975.3,286046996.8,Y
1565801995.1,286046998.9,P
